Tracking 28052 objects as of 25-Sep-2023
HD Live streaming from Space Station
objects crossing your sky now

STARLINK-3905

Track STARLINK-3905 now!
10-day predictions
STARLINK-3905 is classified as:


NORAD ID: 52495
Int'l Code: 2022-049AW
Perigee: 546.0 km
Apogee: 547.7 km
Inclination: 53.2 °
Period: 95.4 minutes
Semi major axis: 6917 km
RCS: Unknown
Launch date: May 6, 2022
Source: United States (US)
Launch site: AIR FORCE EASTERN TEST RANGE (AFETR)
Your satellite tracking list
Your tracking list is empty




NASA's NSSDC Master Catalog

Two Line Element Set (TLE):
1 52495U 22049AW  23267.86735418 -.00000652  00000-0 -22898-4 0  9992
2 52495  53.2162 115.1126 0001190  92.1565 267.9564 15.08846123 77160
Source of the keplerian elements: AFSPC